Location: Newark
(45.7812°N, 4.7054°E)
Time: 07:39:35
(UTC+00:00)

N. Korean satellite - Visible Passes

Search period start: 29 January 2020 00:00
Search period end: 08 February 2020 00:00
Orbit: 454 x 507 km, 97.2° (Epoch: 28 January)

Date Brightness Start Highest point End Pass type
(mag) Time Alt. Az. Time Alt. Az. Time Alt. Az.
29 Jan 6.5 05:35:45 10° NNE 05:39:22 88° ESE 05:43:01 10° SSW visible
29 Jan 10.0 17:48:55 10° WSW 17:50:22 12° W 17:51:50 10° WNW visible
30 Jan 7.9 05:10:23 10° NNE 05:13:50 41° E 05:17:19 10° S visible
30 Jan 9.3 17:21:49 10° SSW 17:24:40 24° W 17:27:31 10° NW visible
31 Jan 9.3 04:45:22 10° NE 04:48:13 21° E 04:51:03 10° SE visible
31 Jan 7.5 06:18:28 10° N 06:21:36 28° WNW 06:24:45 10° SW visible
01 Feb 10.2 04:21:26 10° ENE 04:22:30 11° E 04:23:33 10° ESE visible
01 Feb 6.6 05:52:38 10° N 05:56:12 56° WNW 05:59:48 10° SSW visible
02 Feb 6.9 05:27:05 10° NNE 05:30:43 69° ESE 05:34:23 10° S visible
02 Feb 9.8 17:39:29 10° SW 17:41:37 15° W 17:43:46 10° NW visible
03 Feb 8.4 05:01:48 10° NNE 05:05:09 33° E 05:08:30 10° SSE visible
04 Feb 9.6 04:36:59 10° NE 04:39:30 17° E 04:42:00 10° SE visible
04 Feb 7.2 06:09:38 10° N 06:12:59 35° WNW 06:16:21 10° SW visible
05 Feb 6.5 05:43:54 10° N 05:47:33 72° WNW 05:51:14 10° SSW visible
06 Feb 7.4 05:18:26 10° NNE 05:22:03 54° E 05:25:40 10° S visible
06 Feb 9.7 17:30:17 10° SW 17:32:51 19° W 17:35:27 10° NW visible
07 Feb 8.9 04:53:16 10° NE 04:56:26 27° E 04:59:37 10° SSE visible
